STARLINK-32939, 63149

Orbit data source: Space-Track

STARLINK-32939, 63149 is a payload satellite owned by SpaceX/Seattle (US) in LEO that was launched on Mon, 03 Mar 2025 UTC via an FALCON 9 launch vehicle from the Air Force Eastern Test Range (AFETR). Payload-class satellites include a variety of spacecraft equipped with specific instruments for various scientific and technological missions. These include communications satellites like Starlink; space stations such as the ISS; scientific satellites like the Hubble; Earth observation satellites from companies like Planet Labs, Umbra, and HawkEye 360; GPS; miniature CubeSats for education and research; and military/defense satellites.

Loading next visibility...
Identifier
63149, 2025-043T
Orbit
LEO
Country
Flag of USUS
Related business
Manufacturer
SpaceX/Seattle
Mission
Operational Commercial Communications
Bus & Motor
STARLINK V2M, Unknown motor
Mass
730 kg wet, ~700 kg dry
Launch date (UTC)
2025-03-03 (11 months ago)
Launch vehicle
FALCON 9
Launch site
Air Force Eastern Test Range (AFETR)
Object type
Payload
Rocket body
Debris
Shape & HBR
Box + 2 Pan, 17.7 m
Radar Cross Section
33.884 m², Large (>1 m²)

Expand to show TLE details & history
Last TLE update: 16 hours ago

TLE from 16 hours ago
0 STARLINK-32939
1 63149U 25043T   26036.70922098  .00045535  00000-0  16526-2 0  9995
2 63149  43.0018 196.6459 0002114 275.8747  84.1863 15.27607574 52471
Epoch: 2026-02-05T17:01Z
TLE epoch observation values (Epoch: 2026-02-05T17:01:16.692Z)
Latitude
-0.00007°
Longitude
165.46872°
Altitude
482.596 km
Speed
7.626 km/s
True Right ascension
13h 06m 34s
True Declination
0° 00' 00"
Sunlit
Object was in full shadow at epoch
Visualization orbit readout
Latitude
Unknown
Longitude
Unknown
Altitude
Unknown
Speed
Unknown
Apparent Right ascension
Unknown
Apparent Declination
Unknown
Sunlit
N/A
Visualization observer readout
Local Sidereal Time
11:35:33
Azimuth
Unknown
Elevation
Unknown
Doppler factor
Unknown
Orbital elements
Apogee altitude
486.362 km
Perigee altitude
483.461 km
Semi-major axis
6,863.048 km
Eccentricity
0.00021
Inclination
43.0018°
RAAN
196.6459°
Arg. of periapsis
275.8747°
True anomaly
84.2104°
Mean anomaly
84.1863°
Eccentric anomaly
84.19835°
Mean motion
3.8174 °/min
Orbital period
94.31 mins
BSTAR
0.0016526
Loading maneuver chart data...
Computing Atmospheric mass density...
Loading historical data...
Loading historical data...
Loading historical data...
Loading historical data...
Loading historical data...
Loading historical data...
Loading historical data...

Documentation

Showing up to 5 results
|